Weather Roundup
Issued by NWS

Home | Current Version | Previous Version | Text Only | Print | Product List | Glossary On
Versions: 1 2 3 4 5 6 7 8 9 10 11 12 13 14 15 16 17 18 19 20 21 22 23 24 25 26 27 28 29 30 31 32 33 34 35 36 37 38 39 40 41 42 43 44 45 46 47 48 49 50
000
NZUS93 KARX 191410
HRRWXR

CURRENT HOURLY OBSERVATIONS ACROSS
MUCH OF THE UPPER MISSISSIPPI VALLEY
NATIONAL WEATHER SERVICE LA CROSSE WI
800 AM CST SUN FEB 19 2017


...SOUTHEAST MINNESOTA...


CITY           SKY/WX    TMP DP  RH WIND       PRES   REMARKS
ROCHESTER      CLOUDY    33  33 100 S8        29.97R WCI  26
ROCHESTER/MAYO FAIR      36  36 100 SE6       29.98R WCI  31
WINONA         PTCLDY    30  30 100 CALM      30.01R
AUSTIN         CLEAR     34  34 100 SE5       29.96R WCI  30
ALBERT LEA     CLOUDY    36  36 100 SE5       29.95R FOG     WCI  32
DODGE CENTER   CLOUDY    36  32  87 CALM      29.96R
PRESTON        CLEAR     34  32  93 S6        29.98S WCI  29
OWATONNA       CLOUDY    37  36  93 SE8       29.95R WCI  31
FARIBAULT      CLOUDY    32  30  93 CALM      29.95R FOG
$$

...ELSEWHERE IN MINNESOTA...


CITY           SKY/WX    TMP DP  RH WIND       PRES   REMARKS
MINNEAPOLIS    MOCLDY    36  33  89 SE5       29.96R WCI  32
INTNL FALLS    CLOUDY    30  28  92 SE3       29.94R
DULUTH         PTCLDY    34  30  85 E6        29.95R WCI  29
RED WING       PTCLDY    34  32  93 E5        29.98R FOG     WCI  30
REDWOOD FALLS  PTCLDY    37  35  92 E7        29.87S FOG     WCI  32
MANKATO          N/A     36  34  92 SE9       29.94R WCI  29
WORTHINGTON    CLOUDY    40  35  83 SE10      29.86  WCI  33
FAIRMONT       PTCLDY    36  36 100 S8        29.92R FOG     WCI  29
$$

...SOUTHWEST WISCONSIN...


CITY           SKY/WX    TMP DP  RH WIND       PRES   REMARKS
LA CROSSE      CLEAR     32  30  92 S5        30.01R WCI  27
PRAIRIE DU CHI PTSUNNY   29  28  96 CALM      30.03R FOG
BOSCOBEL       SUNNY     30  28  92 CALM      30.03R
LONE ROCK      MOSUNNY   31  28  89 CALM      30.04R
PLATTEVILLE    CLOUDY    39  36  87 CALM      30.02R
FORT MC COY    CLOUDY    26  25  94 CALM      30.02R
CAMP DOUGLAS   MOSUNNY   30  27  86 CALM      30.01R
MAUSTON-NEW LI SUNNY     31  28  91 CALM      30.00R
VIROQUA        FAIR      38  32  81 CALM      29.99R
WIS DELLS      SUNNY     32  29  90 CALM      30.02R
$$

...ELSEWHERE IN WISCONSIN...


CITY           SKY/WX    TMP DP  RH WIND       PRES   REMARKS
MILWAUKEE      MOSUNNY   47  32  56 NW6       30.01R
MADISON        MOSUNNY   32  29  88 CALM      30.02R
GREEN BAY      SUNNY     39  35  86 NW5       30.01R
EAU CLAIRE     CLEAR     30  29  96 CALM      29.98R FOG
BLACK RVR FLS  FAIR      27  27 100 CALM      30.00R
MEDFORD        CLEAR     31  29  94 CALM      29.99R FOG
WAUSAU         SUNNY     33  31  92 CALM      29.99R
WIS RAPIDS     SUNNY     30  29  96 CALM      30.02R
MARSHFIELD     SUNNY     33  30  88 CALM      29.98R
RICE LAKE      PTCLDY    29  28  97 CALM      29.99R
$$

...NORTHEAST IOWA...


CITY           SKY/WX    TMP DP  RH WIND       PRES   REMARKS
WATERLOO       CLOUDY    30  29  96 E3        29.99R FOG
DUBUQUE        SUNNY     37  33  85 SW3       30.02R
DECORAH        CLOUDY    34  34 100 SE3       29.98S
MASON CITY     CLEAR     32  32 100 SE3       29.97R FOG
CHARLES CITY   CLOUDY    34  34 100 E8        29.98S FOG     WCI  27
OELWEIN        CLEAR     36  36 100 E8        30.00R WCI  29
$$

...ELSEWHERE IN IOWA...


CITY           SKY/WX    TMP DP  RH WIND       PRES   REMARKS
DES MOINES     PTCLDY    44  33  65 SE6       29.96R
IOWA CITY      CLOUDY    33  30  88 CALM      30.02R
FORT DODGE     CLEAR     39  36  87 E6        29.94R WCI  35
MARSHALLTOWN   FOG       32  32 100 SE7       29.96S VSB 1   WCI  26
CEDAR RAPIDS   MOSUNNY   33  33 100 E7        29.99R WCI  27
$$

...NORTHERN ILLINOIS...


CITY           SKY/WX    TMP DP  RH WIND       PRES   REMARKS
CHICAGO-OHARE  MOSUNNY   44  36  73 CALM      30.02R
CHICAGO-MIDWAY PTSUNNY   43  37  79 CALM      30.03R
MOLINE         SUNNY     33  30  88 CALM      30.02R
ROCKFORD       SUNNY     35  31  85 CALM      30.06R
PEORIA         FOG       35  35 100 CALM      30.04R VSB<1/4
$$

NOTE: "FAIR" INDICATES FEW OR NO CLOUDS BELOW 12,000 FEET WITH NO
SIGNIFICANT WEATHER AND/OR OBSTRUCTIONS TO VISIBILITY. WIND
SPEEDS ARE IN MILES-PER-HOUR.




USA.gov is the U.S. government's official web portal to all federal, state and local government web resources and services.